Back to catalog

STARLINK-38086

AliveCommunicationsSSO
NORAD 69998·PAYLOAD·🇺🇸 United States

Launched Jul 11, 2026 from Vandenberg Space Force Base

Loading…

Next Passes (next 24 hours)

TLE

FreshSource: CelesTrak SupGP

Epoch: Sep 14, 2026, 21:09 UTC

1 69998C 26159Z   26257.88173611  .00059286  00000+0  39850-3 0  2575
2 69998  97.2846  99.7278 0001472  87.7507 236.5866 15.75147938    16

Track STARLINK-38086 in real time with AllMySat

Download on the App Store